Weather History for KPAE - April, 2013

Change the Weather History Date:

Sunday, April 7, 2013

  Actual Average Record
Temperature  
Mean Temperature 42 °F -  
Max Temperature 46 °F 55 °F 70 °F (2014)
Min Temperature 39 °F 38 °F 31 °F (1967)
Degree Days  
Heating Degree Days 22    
Moisture  
Dew Point 39 °F    
Average Humidity 88    
Maximum Humidity 96    
Minimum Humidity 76    
Precipitation  
Precipitation 1.08 in - - ()
Sea Level Pressure  
Sea Level Pressure 29.72 in    
Wind  
Wind Speed 4 mph (SSW)    
Max Wind Speed 12 mph    
Max Gust Speed 20 mph    
Visibility 7 miles    
Events Rain    
Averages and records for this station are not official NWS values.
T = Trace of Precipitation, MM = Missing Value Source: NWS Daily Summary

Daily Weather History Graph

Daily Weather History Graph

Search for Another Location

Airport or City:

Trip Planner

Search our weather history database for the weather conditions in past years. The results will help you decide how hot, cold, wet, or windy it might be!

Date:

Astronomy

Apr. 07, 2013 Rise Set
Actual Time 6:34 AM PDT 7:48 PM PDT
Civil Twilight 6:02 AM PDT 8:20 PM PDT
Nautical Twilight 5:24 AM PDT 8:58 PM PDT
Astronomical Twilight 4:43 AM PDT 9:40 PM PDT
Moon 5:06 AM PDT (4/7) 5:17 PM PDT (4/7)
Length of Visible Light 14h 17m
Length of Day
13h 13m
Waning Crescent, 7% of the Moon is Illuminated
Apr 7
Waning Crescent
Apr 10
New
Apr 18
First Quarter
Apr 25
Full
May 2
Last Quarter

Hourly Weather History & Observations

Time (PDT) Temp. Windchill Dew Point Humidity Pressure Visibility Wind Dir Wind Speed Gust Speed Precip Events Conditions
12:53 AM 44.1 °F 40.8 °F 39.9 °F 85% 29.74 in 10.0 mi ESE 5.8 mph - 0.00 in   Overcast
1:53 AM 43.0 °F - 39.0 °F 86% 29.67 in 10.0 mi Calm Calm - N/A   Overcast
2:53 AM 42.1 °F - 39.0 °F 89% 29.63 in 9.0 mi Calm Calm - 0.01 in Rain Light Rain
3:23 AM 42.8 °F - 39.2 °F 87% 29.60 in 5.0 mi Calm Calm - 0.04 in Rain Light Rain
3:53 AM 42.1 °F 38.4 °F 39.0 °F 89% 29.58 in 6.0 mi North 5.8 mph - 0.09 in Rain Light Rain
4:05 AM 42.8 °F 38.6 °F 39.2 °F 87% 29.57 in 8.0 mi North 6.9 mph - 0.01 in Rain Light Rain
4:16 AM 42.8 °F 40.1 °F 39.2 °F 87% 29.57 in 6.0 mi NNE 4.6 mph - 0.03 in Rain Light Rain
4:53 AM 41.0 °F 38.0 °F 39.9 °F 96% 29.55 in 6.0 mi NNE 4.6 mph - 0.10 in Rain Light Rain
5:53 AM 39.9 °F 36.7 °F 37.0 °F 89% 29.53 in 4.0 mi NNE 4.6 mph - 0.19 in Rain Rain
6:32 AM 39.2 °F 35.9 °F 37.4 °F 93% 29.52 in 3.0 mi NNW 4.6 mph - 0.13 in Rain Rain
6:53 AM 39.9 °F 36.7 °F 37.9 °F 93% 29.53 in 3.0 mi Variable 4.6 mph - 0.17 in Rain Light Rain
7:53 AM 39.9 °F 36.7 °F 37.9 °F 93% 29.56 in 3.0 mi NNW 4.6 mph - 0.10 in Rain Rain
7:58 AM 39.2 °F 35.9 °F 37.4 °F 93% 29.55 in - NW 4.6 mph - 0.02 in Rain Rain
8:05 AM 39.2 °F 34.2 °F 37.4 °F 93% 29.56 in 3.0 mi NNW 6.9 mph 19.6 mph 0.03 in Rain Light Rain
8:09 AM 39.2 °F 35.9 °F 37.4 °F 93% 29.56 in 4.0 mi NNW 4.6 mph 19.6 mph 0.04 in Rain Light Rain
8:53 AM 41.0 °F 38.0 °F 39.0 °F 93% 29.60 in 5.0 mi West 4.6 mph - 0.08 in Rain Light Rain
9:53 AM 41.0 °F 36.4 °F 37.9 °F 89% 29.65 in 10.0 mi West 6.9 mph - 0.06 in Rain Light Rain
10:53 AM 41.0 °F 34.7 °F 39.0 °F 93% 29.69 in 5.0 mi WSW 10.4 mph 18.4 mph 0.04 in Rain Light Rain
11:53 AM 41.0 °F 34.3 °F 39.0 °F 93% 29.72 in 6.0 mi SSW 11.5 mph - 0.07 in Rain Light Rain
12:53 PM 42.1 °F 35.7 °F 39.0 °F 89% 29.74 in 9.0 mi SSW 11.5 mph - 0.05 in Rain Light Rain
1:53 PM 42.1 °F 36.6 °F 39.0 °F 89% 29.75 in 10.0 mi SSE 9.2 mph - 0.03 in Rain Light Rain
2:53 PM 44.1 °F - 37.9 °F 79% 29.76 in 10.0 mi Calm Calm - 0.00 in   Overcast
3:53 PM 46.0 °F 43.9 °F 39.0 °F 76% 29.77 in 10.0 mi East 4.6 mph - N/A   Overcast
4:10 PM 44.6 °F 42.2 °F 39.2 °F 81% 29.76 in 10.0 mi SSE 4.6 mph - N/A   Overcast
4:53 PM 45.0 °F 41.8 °F 41.0 °F 86% 29.78 in 10.0 mi ESE 5.8 mph - 0.00 in Rain Light Rain
5:53 PM 45.0 °F 42.6 °F 39.9 °F 82% 29.79 in 10.0 mi Variable 4.6 mph - 0.00 in Rain Light Rain
6:00 PM 44.6 °F 42.2 °F 39.2 °F 81% 29.78 in 10.0 mi Variable 4.6 mph - 0.00 in Rain Light Rain
6:53 PM 44.1 °F 41.5 °F 39.9 °F 85% 29.81 in 6.0 mi Variable 4.6 mph - 0.01 in Rain Light Rain
7:14 PM 44.6 °F 40.7 °F 41.0 °F 87% 29.81 in 2.0 mi South 6.9 mph - 0.04 in Rain Rain
7:22 PM 42.8 °F 37.5 °F 39.2 °F 87% 29.81 in 7.0 mi SSE 9.2 mph - 0.05 in Rain Light Rain
7:37 PM 42.8 °F 39.3 °F 39.2 °F 87% 29.81 in 7.0 mi South 5.8 mph - 0.05 in   Overcast
7:45 PM 42.8 °F 40.1 °F 39.2 °F 87% 29.81 in 7.0 mi South 4.6 mph - 0.05 in   Overcast
7:53 PM 43.0 °F 40.3 °F 39.0 °F 86% 29.83 in 7.0 mi South 4.6 mph - 0.05 in   Overcast
8:53 PM 44.1 °F - 39.9 °F 85% 29.84 in 10.0 mi Calm Calm - N/A   Overcast
9:45 PM 44.6 °F - 39.2 °F 81% 29.84 in 10.0 mi Calm Calm - N/A   Overcast
9:53 PM 44.1 °F - 39.9 °F 85% 29.85 in 10.0 mi Calm Calm - N/A   Overcast
10:40 PM 44.6 °F - 39.2 °F 81% 29.87 in 10.0 mi Calm Calm - 0.00 in Rain Light Rain
10:53 PM 44.1 °F - 39.9 °F 85% 29.88 in 10.0 mi Calm Calm - 0.00 in   Overcast
11:31 PM 42.8 °F 41.1 °F 41.0 °F 93% 29.88 in 10.0 mi South 3.5 mph - 0.00 in Rain Light Rain
11:53 PM 43.0 °F - 41.0 °F 93% 29.90 in 3.0 mi Calm Calm - 0.03 in Rain Light Rain
11:56 PM 42.8 °F 40.1 °F 41.0 °F 93% 29.89 in 2.5 mi South 4.6 mph - 0.02 in Rain Heavy Rain